[[{"header":{"parameterUnit":"m.s-1","parameterCategory":1,"la1":30.2991,"la2":30.254,"lo1":-89.0895,"lo2":-89.0444,"dy":0.0017,"dx":0.0017,"nx":28,"ny":28,"refTime":"2024-07-18T03:00:00:Z","depth":0,"parameterNumber":2,"parameterNumberName":"U-component_of_WINDS"},"data":[0,0,0,0,0,0,0,0,0,0,0,0,0,0,0,0,0,0,0,0,0,0,0,0,0,0,0,0,0,0,0,0,0,0,0,0,0,0,0,0,0,0,0,0,0,0,0,0,0,0,0,0,0,0,0,0,0,0,2.1057,2.1058,0,2.1218,2.1219,2.1221,2.122,2.1218,2.1216,2.1214,2.1381,2.1387,2.1393,0,0,0,0,0,0,0,0,0,0,0,0,0,2.0751,2.0757,2.1057,2.1059,2.1061,2.1217,2.1219,2.1222,2.1221,2.1218,2.1216,2.1213,2.1379,2.1386,2.1394,0,0,0,0,0,0,0,0,0,0,0,0,0,2.0895,2.0758,2.1056,2.1079,2.1083,2.1217,2.122,2.1222,2.1221,2.1218,2.1215,2.1212,2.1376,2.1385,2.1395,2.1518,0,0,2.1424,2.1428,0,0,0,0,0,0,0,0,2.0887,2.0906,2.1074,2.1078,2.1082,2.1196,2.1173,2.1321,2.1222,2.1169,2.1214,2.121,2.1322,2.1336,2.1373,2.1525,2.1533,2.1425,2.1431,2.1435,2.1438,0,0,0,0,0,0,0,2.0877,2.0899,2.112,2.1076,2.1081,2.1082,2.1099,2.1201,2.1261,2.1173,2.1173,2.1192,2.1323,2.1364,2.1377,2.1535,2.1425,2.1433,2.1439,2.1443,2.1797,2.1801,0,0,0,0,0,0,2.0862,2.0891,2.1115,2.1125,2.0975,2.109,2.1109,2.1162,2.126,2.1272,2.1195,2.1192,2.1349,2.1366,2.1383,2.1533,2.1435,2.1444,2.1449,2.1794,2.1798,2.1802,0,0,0,0,0,0,2.0855,2.0882,2.1109,2.1008,2.1037,2.1099,2.1159,2.1167,2.1207,2.1276,2.1287,2.1225,2.1347,2.1369,2.1484,2.1539,2.1448,2.1457,2.1789,2.1795,2.18,2.1834,0,0,0,0,0,0,2.0847,2.088,2.0926,2.1009,2.1043,2.1207,2.1162,2.1173,2.1224,2.1221,2.1307,2.1319,2.1346,2.147,2.1494,2.155,2.1465,2.1785,2.1792,2.1798,2.1829,2.184,2.185,0,0,0,0,0,2.0836,2.093,2.0928,2.0956,2.1102,2.121,2.1229,2.1258,2.1228,2.1276,2.132,2.1316,2.1529,2.1482,2.1508,2.1569,2.1781,2.179,2.1798,2.1824,2.1838,2.185,0,0,0,0,0,0,2.0852,2.0941,2.0941,2.1064,2.1129,2.121,2.1271,2.1272,2.1348,2.1343,2.1376,2.1396,2.1511,2.1552,2.1497,2.1693,2.1652,2.1666,2.1662,2.1676,2.1687,2.1674,2.1472,0,0,0,0,0,2.0869,2.0949,2.1023,2.1125,2.1158,2.1209,2.1257,2.1274,2.1343,2.1371,2.1424,2.1492,2.1574,2.1628,2.1707,2.1835,2.1854,2.189,2.1901,2.1909,2.1921,2.1992,2.2009,2.1829,2.1829,2.1829,0,0,2.0907,2.0966,2.1014,2.113,2.1182,2.1265,2.1232,2.132,2.1382,2.1384,2.1496,2.1538,2.1616,2.1738,2.1794,2.1775,2.1975,2.192,2.1926,2.1933,2.2002,2.2019,2.2034,2.1835,2.1834,2.1833,0,0,2.1018,2.107,2.1161,2.1214,2.1294,2.1328,2.135,2.143,2.1457,2.157,2.1574,2.1648,2.1789,2.1845,2.1892,2.2025,2.2024,2.205,2.2107,2.2176,2.219,2.2202,2.225,2.2266,2.2062,2.2062,2.2062,0,2.1054,2.1178,2.1207,2.1296,2.1347,2.1353,2.1446,2.1497,2.1599,2.1634,2.1612,2.1789,2.1842,2.1978,2.201,2.2048,2.2074,2.204,2.2185,2.2198,2.2211,2.2256,2.2274,2.2064,2.2064,2.2064,2.2063,0,2.1219,2.1305,2.1369,2.1467,2.1526,2.1616,2.166,2.1716,2.1728,2.1764,2.1879,2.1943,2.2036,2.207,2.2083,2.2208,2.2193,2.2178,2.2136,2.223,2.2273,2.2291,2.2068,2.2067,2.2066,2.2066,0,0,2.1343,2.1457,2.148,2.1525,2.1614,2.1681,2.1773,2.1863,2.191,2.1981,2.2059,2.2179,2.2165,2.2218,2.2238,2.2298,2.24,2.2276,2.2278,2.2296,2.2542,2.2552,2.2572,2.24,2.2404,2.2406,2.2535,0,2.1463,2.1624,2.1654,2.1794,2.1874,2.1882,2.1962,2.2026,2.2062,2.2136,2.2177,2.2261,2.2237,2.2269,2.2329,2.2375,2.245,2.2366,2.2473,2.2476,2.2452,2.2595,2.2606,2.2724,2.2552,2.2555,2.2557,0,2.1624,2.1699,2.1847,2.1926,2.1961,2.2032,2.2117,2.2188,2.2261,2.2283,2.2343,2.2356,2.2452,2.2407,2.254,2.2483,2.2529,2.2558,2.2563,2.2574,2.2522,2.2609,2.2763,2.278,2.2584,2.2582,2.258,0,2.1699,2.1837,2.1944,2.1982,2.2077,2.2127,2.2169,2.2239,2.2291,2.2367,2.2401,2.2487,2.2534,2.2601,2.2637,2.2601,2.2768,2.2726,2.2789,2.2788,2.2823,2.282,2.2986,2.2854,2.2853,2.2853,2.2853,0,2.183,2.192,2.1979,2.2044,2.2146,2.218,2.228,2.2322,2.2384,2.2459,2.2471,2.2541,2.2585,2.2661,2.269,2.2796,2.2818,2.2839,2.2845,2.2837,2.2835,2.2867,2.286,2.2858,2.2857,2.2856,2.2855,0,2.1931,2.1973,2.209,2.2171,2.2193,2.2265,2.2334,2.2399,2.2436,2.253,2.2554,2.2612,2.2703,2.2746,2.2858,2.2878,2.2998,2.2999,2.2973,2.2975,2.3036,2.303,2.3228,2.3256,2.3106,2.3107,2.3108,0,2.2011,2.208,2.2168,2.2219,2.2262,2.2343,2.2397,2.2434,2.249,2.2579,2.2633,2.2724,2.2798,2.2943,2.2996,2.3082,2.3085,2.3149,2.3098,2.3088,2.3086,2.3081,2.3088,2.3158,2.3159,2.3161,2.3162,0,2.2148,2.2166,2.2243,2.2327,2.2391,2.246,2.2527,2.2568,2.2616,2.2678,2.277,2.2828,2.2943,2.3034,2.3124,2.3168,2.3173,2.3177,2.3197,2.3189,2.317,2.3181,2.2997,2.3172,2.3171,2.317,2.317,2.3169,2.2241,2.2303,2.2375,2.2461,2.2515,2.2578,2.2643,2.2688,2.2765,2.2861,2.2878,2.2977,2.3049,2.3171,2.3218,2.3297,2.3282,2.331,2.3317,2.3323,2.3326,2.3158,2.3313,2.3313,2.3313,2.3313,2.3312,0,2.2379,2.2425,2.2504,2.2597,2.2665,2.2664,2.2739,2.2795,2.2881,2.2948,2.3022,2.3128,2.3216,2.3276,2.3366,2.3417,2.3422,2.3439,2.3436,2.3446,2.3334,2.3308,2.3434,2.3434,2.3434,2.3434,2.3434,2.3434,2.2458,2.2564,2.259,2.2724,2.277,2.2866,2.2909,2.2968,2.3021,2.3139,2.3212,2.3251,2.3316,2.341,2.3491,2.3506,2.3539,2.3557,2.3572,2.3466,2.3454,2.3441,2.3417,2.3564,2.3564,2.3677,2.3678,2.3679]},{"header":{"parameterUnit":"m.s-1","parameterCategory":1,"la1":30.2991,"la2":30.254,"lo1":-89.0895,"lo2":-89.0444,"dy":0.0017,"dx":0.0017,"nx":28,"ny":28,"refTime":"2024-07-18T03:00:00:Z","depth":0,"parameterNumber":3,"parameterNumberName":"V-component_of_WINDS"},"data":[0,0,0,0,0,0,0,0,0,0,0,0,0,0,0,0,0,0,0,0,0,0,0,0,0,0,0,0,0,0,0,0,0,0,0,0,0,0,0,0,0,0,0,0,0,0,0,0,0,0,0,0,0,0,0,0,0,0,-0.459,-0.4588,0,-0.4477,-0.4476,-0.4475,-0.4467,-0.4468,-0.447,-0.4471,-0.4352,-0.4347,-0.4343,0,0,0,0,0,0,0,0,0,0,0,0,0,-0.4794,-0.479,-0.459,-0.4588,-0.4587,-0.4477,-0.4476,-0.4474,-0.4467,-0.4468,-0.447,-0.4471,-0.4353,-0.4348,-0.4343,0,0,0,0,0,0,0,0,0,0,0,0,0,-0.4696,-0.4789,-0.459,-0.457,-0.4567,-0.4478,-0.4476,-0.4474,-0.4466,-0.4468,-0.447,-0.4472,-0.4355,-0.4348,-0.4342,-0.4264,0,0,-0.4322,-0.4319,0,0,0,0,0,0,0,0,-0.4701,-0.4688,-0.4574,-0.4571,-0.4568,-0.4488,-0.4504,-0.4403,-0.4466,-0.4505,-0.4471,-0.4473,-0.4395,-0.4386,-0.436,-0.4258,-0.4253,-0.4321,-0.4318,-0.4315,-0.4313,0,0,0,0,0,0,0,-0.4708,-0.4693,-0.4545,-0.4573,-0.4569,-0.4565,-0.4554,-0.4485,-0.444,-0.4501,-0.4501,-0.4488,-0.4394,-0.4366,-0.4357,-0.4251,-0.4322,-0.4316,-0.4312,-0.4309,-0.4077,-0.4075,0,0,0,0,0,0,-0.4719,-0.4699,-0.4549,-0.4542,-0.4641,-0.456,-0.4547,-0.4512,-0.4441,-0.4432,-0.4486,-0.4488,-0.4377,-0.4365,-0.4353,-0.4255,-0.4315,-0.4309,-0.4305,-0.4079,-0.4077,-0.4074,0,0,0,0,0,0,-0.4724,-0.4706,-0.4553,-0.462,-0.46,-0.4555,-0.4515,-0.4509,-0.4481,-0.443,-0.4421,-0.4466,-0.4378,-0.4362,-0.4286,-0.4251,-0.4306,-0.43,-0.4082,-0.4078,-0.4075,-0.406,0,0,0,0,0,0,-0.4729,-0.4708,-0.4678,-0.4619,-0.4597,-0.4489,-0.4513,-0.4505,-0.447,-0.4471,-0.4409,-0.4401,-0.4378,-0.4296,-0.4279,-0.4243,-0.4295,-0.4085,-0.408,-0.4076,-0.4063,-0.4056,-0.405,0,0,0,0,0,-0.4737,-0.4678,-0.4677,-0.4659,-0.4559,-0.4487,-0.4474,-0.445,-0.4468,-0.4437,-0.4404,-0.4403,-0.4258,-0.4288,-0.4269,-0.4231,-0.4087,-0.4082,-0.4077,-0.4066,-0.4057,-0.405,0,0,0,0,0,0,-0.4732,-0.467,-0.4668,-0.4588,-0.4543,-0.4486,-0.4447,-0.4442,-0.439,-0.4393,-0.4365,-0.4351,-0.4275,-0.4245,-0.428,-0.415,-0.4174,-0.4165,-0.4172,-0.4164,-0.4157,-0.4165,-0.4289,0,0,0,0,0,-0.4723,-0.4671,-0.4618,-0.4553,-0.453,-0.4492,-0.446,-0.4446,-0.4397,-0.4378,-0.4339,-0.4291,-0.4234,-0.4198,-0.4143,-0.4059,-0.4044,-0.4023,-0.4017,-0.4012,-0.4004,-0.3956,-0.3945,-0.4058,-0.4058,-0.4058,0,0,-0.4701,-0.466,-0.4629,-0.4551,-0.4514,-0.4459,-0.4476,-0.4418,-0.4376,-0.4368,-0.4294,-0.4264,-0.4208,-0.4127,-0.4089,-0.41,-0.397,-0.4006,-0.4002,-0.3996,-0.3949,-0.3939,-0.3929,-0.4054,-0.4055,-0.4055,0,0,-0.4633,-0.4598,-0.4539,-0.4502,-0.4447,-0.4422,-0.4408,-0.4351,-0.4331,-0.4256,-0.4249,-0.4198,-0.4102,-0.4062,-0.4029,-0.3946,-0.3942,-0.3929,-0.3895,-0.3848,-0.384,-0.3832,-0.38,-0.3789,-0.3922,-0.3922,-0.3922,0,-0.4613,-0.4531,-0.4509,-0.445,-0.4415,-0.4407,-0.4346,-0.4311,-0.424,-0.4216,-0.4229,-0.4107,-0.4069,-0.3978,-0.3958,-0.3932,-0.3914,-0.3935,-0.3843,-0.3835,-0.3827,-0.3796,-0.3785,-0.392,-0.392,-0.3921,-0.3921,0,-0.4508,-0.4451,-0.441,-0.4343,-0.4303,-0.4244,-0.4211,-0.4174,-0.4163,-0.4136,-0.4059,-0.4013,-0.3949,-0.3926,-0.3915,-0.3833,-0.3841,-0.3849,-0.3872,-0.3815,-0.3786,-0.3774,-0.3918,-0.3919,-0.3919,-0.392,0,0,-0.4433,-0.4355,-0.434,-0.4309,-0.4247,-0.4202,-0.4141,-0.4079,-0.4047,-0.3998,-0.3945,-0.3864,-0.3871,-0.3834,-0.3818,-0.3777,-0.3712,-0.3789,-0.3788,-0.3775,-0.3617,-0.361,-0.3597,-0.371,-0.3708,-0.3706,-0.3621,0,-0.4358,-0.4251,-0.4229,-0.4136,-0.4082,-0.4074,-0.4021,-0.3976,-0.395,-0.3899,-0.3869,-0.3811,-0.3826,-0.3803,-0.3762,-0.3728,-0.3679,-0.3735,-0.3658,-0.3656,-0.3671,-0.3582,-0.3575,-0.3497,-0.361,-0.3608,-0.3606,0,-0.4255,-0.4204,-0.4106,-0.405,-0.4027,-0.398,-0.392,-0.3873,-0.3822,-0.3805,-0.3764,-0.3752,-0.3687,-0.3715,-0.3624,-0.3662,-0.363,-0.3608,-0.3604,-0.3595,-0.3627,-0.3568,-0.3472,-0.346,-0.3588,-0.359,-0.3591,0,-0.4208,-0.4116,-0.4045,-0.4018,-0.3952,-0.3919,-0.389,-0.384,-0.3804,-0.3752,-0.3728,-0.3668,-0.3635,-0.3589,-0.3561,-0.3584,-0.3472,-0.3498,-0.3454,-0.3455,-0.343,-0.3431,-0.3325,-0.3412,-0.3412,-0.3412,-0.3413,0,-0.4124,-0.4064,-0.4023,-0.3979,-0.391,-0.3885,-0.3818,-0.3789,-0.3745,-0.3694,-0.3683,-0.3635,-0.3602,-0.3549,-0.3527,-0.3454,-0.344,-0.3423,-0.3418,-0.3423,-0.3425,-0.34,-0.3404,-0.3409,-0.341,-0.3411,-0.3411,0,-0.406,-0.403,-0.3952,-0.3896,-0.388,-0.3832,-0.3783,-0.374,-0.3713,-0.3649,-0.3632,-0.359,-0.3527,-0.3495,-0.3417,-0.3402,-0.3319,-0.3317,-0.3336,-0.3334,-0.3292,-0.3295,-0.3164,-0.3145,-0.3247,-0.3246,-0.3245,0,-0.4008,-0.3962,-0.3901,-0.3866,-0.3836,-0.3781,-0.3744,-0.3718,-0.3679,-0.3617,-0.358,-0.3517,-0.3465,-0.3365,-0.3326,-0.3265,-0.3261,-0.322,-0.3252,-0.3259,-0.3258,-0.3261,-0.3255,-0.3213,-0.3212,-0.3211,-0.3211,0,-0.3918,-0.3905,-0.3853,-0.3795,-0.3752,-0.3704,-0.3658,-0.363,-0.3595,-0.3553,-0.3489,-0.3448,-0.3368,-0.3305,-0.3242,-0.321,-0.3203,-0.3201,-0.3188,-0.3192,-0.3204,-0.3195,-0.3319,-0.3204,-0.3204,-0.3205,-0.3205,-0.3206,-0.3857,-0.3815,-0.3765,-0.3707,-0.3669,-0.3626,-0.3581,-0.355,-0.3496,-0.343,-0.3417,-0.3349,-0.3297,-0.3212,-0.3178,-0.3123,-0.3132,-0.3113,-0.3108,-0.3103,-0.31,-0.3214,-0.3112,-0.3112,-0.3112,-0.3112,-0.3112,0,-0.3765,-0.3733,-0.3679,-0.3615,-0.3568,-0.3569,-0.3517,-0.3477,-0.3418,-0.3371,-0.332,-0.3246,-0.3184,-0.3141,-0.3078,-0.3043,-0.3038,-0.3027,-0.3028,-0.3021,-0.3097,-0.3114,-0.3031,-0.3031,-0.3031,-0.3031,-0.3031,-0.3031,-0.3712,-0.364,-0.3621,-0.353,-0.3497,-0.3431,-0.3401,-0.336,-0.3323,-0.3241,-0.319,-0.3163,-0.3117,-0.305,-0.2993,-0.2982,-0.2959,-0.2947,-0.2935,-0.3007,-0.3015,-0.3023,-0.3039,-0.2943,-0.2942,-0.2864,-0.2863,-0.2862]}]]